Lid_Strength_Index
-0 -0 0 0 -1 -0 0 1 3 5 4 1 1 -1 -1 -1 -2 -2 -1 -1 -0 -0 -0 -0 -0 -0 -0 -1 -1 -1 -1 -1 -1 -1 -1 -1 -1 -2
-0 -0 -0 -1 -0 -0 0 0 1 3 4 1 0 -0 -1 -2 -2 -2 -1 -1 0 0 0 0 -0 -0 -0 -0 -0 -0 -0 -0 -0 -0 -0 -0 -1 -1
-0 0 1 -0 0 0 0 1 1 2 3 2 0 -0 -0 -0 -0 -1 -1 -1 -1 1 0 0 0 0 -0 -0 -0 -0 -0 0 0 -0 -0 -0 -0 -0
0 -0 0 -0 0 -0 0 1 1 1 2 2 1 1 -0 -1 -1 -0 -1 -1 -1 -0 1 1 1 1 1 1 1 1 1 1 1 1 0 -0 -0 -0
-0 0 0 -0 0 0 0 0 0 1 1 2 2 0 0 -0 0 -0 -0 -0 -1 -0 2 2 1 1 1 2 2 2 3 3 2 2 2 1 1 -0
-0 -0 -0 -0 0 0 0 0 0 1 1 1 1 2 1 -0 -0 1 1 -0 0 -1 -0 -0 1 1 2 3 3 3 4 5 5 4 3 3 2 1
-0 -0 -0 -0 1 0 0 0 0 1 0 2 2 2 2 1 1 1 1 1 0 -0 -0 -1 -1 -1 -1 2 0 2 3 4 5 5 5 5 5 4
1 0 -0 0 1 2 2 2 0 1 1 2 2 2 1 1 1 1 1 2 3 -1 0 1 -1 -0 -1 -1 1 2 4 4 5 5 6 6 6 6
0 0 0 0 0 -0 2 3 2 2 2 0 1 1 1 0 -0 0 1 1 2 0 0 1 -0 0 -1 -1 2 2 3 4 4 4 5 6 7 7
-0 0 0 -0 -0 0 0 0 0 0 -0 -0 -0 -0 -0 -1 -0 -0 -0 0 0 -0 -1 3 0 1 -1 -1 2 2 3 4 4 4 5 6 7 8
0 -0 -0 0 3 4 0 1 1 0 3 3 3 4 4 4 1 -0 1 2 2 1 -0 1 1 1 0 -0 -1 3 4 4 5 5 5 6 8 8
0 0 4 1 6 6 0 1 2 1 0 0 0 1 2 0 4 -1 -0 2 2 2 0 1 1 0 2 0 -1 -1 -1 5 6 6 6 6 7 -1
1 1 0 6 8 8 5 0 1 0 1 0 0 0 -0 -0 -1 -1 -1 0 1 2 -1 -0 1 0 1 2 0 -1 -1 -1 -1 0 8 8 8 4
1 1 0 9 10 10 6 7 8 4 0 1 1 1 1 0 -0 -1 -1 -1 -1 -0 -2 -1 1 1 1 2 2 0 -0 -1 -1 -1 -1 3 8 8
0 2 10 9 10 7 8 7 7 1 1 2 2 1 1 -0 -1 -0 -1 -2 -1 -1 -1 -1 -0 -0 0 2 2 1 1 0 -1 -1 -1 -1 -1 -1
3 2 5 6 7 3 4 4 1 1 1 2 1 -0 -1 0 0 0 1 0 1 1 -1 -2 -1 -0 1 1 1 2 0 1 -0 -1 -0 -0 -1 -1
3 1 1 1 1 1 1 1 0 1 2 1 1 1 1 1 1 -0 0 1 2 1 1 0 -2 -2 -1 -0 2 1 1 1 -0 0 -0 0 -0 -1
4 2 2 1 2 2 1 1 1 1 1 1 1 1 2 2 1 0 0 1 1 1 1 0 0 1 0 0 1 1 1 1 0 0 -0 1 1 -1
4 3 3 2 2 1 1 1 2 1 1 1 1 1 1 1 1 1 1 1 2 1 1 0 1 1 3 3 1 4 1 0 0 1 0 0 1 0
2 2 2 2 1 1 1 1 1 1 1 1 1 1 1 1 1 2 1 1 1 1 1 -0 1 1 2 2 2 1 5 0 1 2 3 3 3 3
2 2 2 1 1 1 1 1 1 1 1 1 1 1 0 0 0 -0 1 7 4 1 2 2 2 5 2 2 4 4 1 5 3 3 4 5 5 5
2 2 1 1 1 1 1 1 3 2 1 1 1 1 1 0 1 1 1 2 2 3 3 4 3 5 5 5 5 4 4 4 3 4 4 4 4 5
1 1 1 1 1 0 0 0 1 2 2 2 2 3 2 2 2 2 2 3 4 6 5 6 6 5 5 5 6 5 4 4 4 4 3 3 3 2